Location: 81360 Arifat, France
(43.7204°N, 2.3408°E)
Time: 08:22:59
(UTC+01:00)

Vanguard 2 - All Passes

Search period start: 07 December 2025 00:00
Search period end: 17 December 2025 00:00
Orbit: 552 x 2898 km, 32.9° (Epoch: 06 December)

Date Brightness Start Highest point End Pass type
(mag) Time Alt. Az. Time Alt. Az. Time Alt. Az.
07 Dec - 05:26:29 10° S 05:27:48 11° SSE 05:29:12 10° SE visible
07 Dec - 07:30:40 10° SW 07:34:35 26° S 07:39:57 10° ESE visible
07 Dec - 09:37:09 10° WSW 09:42:10 28° S 09:49:29 10° SE daylight
07 Dec - 11:45:36 10° WSW 11:50:32 17° SSW 11:56:50 10° SSE daylight
08 Dec - 05:37:21 10° SSW 05:39:35 14° SSE 05:42:03 10° SE visible
08 Dec - 07:42:34 10° SW 07:46:31 26° S 07:51:51 10° ESE daylight
08 Dec - 09:49:23 10° WSW 09:54:09 24° S 10:00:50 10° SE daylight
08 Dec - 11:59:21 10° SW 12:02:32 12° SSW 12:06:13 10° S daylight
09 Dec - 05:48:44 10° SSW 05:51:25 17° SSE 05:54:25 10° ESE visible
09 Dec - 07:54:34 10° SW 07:58:26 25° S 08:03:40 10° SE daylight
09 Dec - 10:01:50 10° WSW 10:06:09 19° SSW 10:11:56 10° SSE daylight
10 Dec - 06:00:22 10° SW 06:03:16 19° SSE 06:06:35 10° ESE visible
10 Dec - 08:06:39 10° WSW 08:10:23 23° S 08:15:21 10° SE daylight
10 Dec - 10:14:35 10° SW 10:18:09 15° SSW 10:22:35 10° SSE daylight
11 Dec - 06:12:09 10° SW 06:15:09 20° S 06:18:37 10° SE visible
11 Dec - 08:18:51 10° SW 08:22:21 20° S 08:26:53 10° SE daylight
11 Dec - 10:28:20 10° SW 10:30:08 11° SSW 10:32:08 10° S daylight
12 Dec - 04:18:23 10° S 04:20:07 12° SSE 04:21:48 10° SE visible
12 Dec - 06:24:02 10° SW 06:27:04 20° S 06:30:32 10° SE visible
12 Dec - 08:31:12 10° SW 08:34:19 17° S 08:38:08 10° SSE daylight
13 Dec - 04:29:36 10° SSW 04:32:00 15° SSE 04:34:20 10° SE visible
13 Dec - 06:36:02 10° SW 06:38:59 19° S 06:42:21 10° SE visible
13 Dec - 08:43:57 10° SW 08:46:16 13° SSW 08:48:58 10° SSE daylight
14 Dec - 04:41:09 10° SW 04:43:54 17° S 04:46:32 10° SE visible
14 Dec - 06:48:09 10° SW 06:50:54 17° S 06:54:00 10° SE visible
15 Dec - 02:46:56 10° S 02:48:41 12° SSE 02:50:17 10° SE night (unlit)
15 Dec - 04:52:53 10° SW 04:55:47 18° S 04:58:36 10° SE visible
15 Dec - 07:00:26 10° SW 07:02:49 15° S 07:05:26 10° SSE visible
16 Dec - 02:57:45 10° SSW 03:00:36 15° S 03:03:05 10° SE night (unlit)
16 Dec - 05:04:45 10° SW 05:07:41 19° S 05:10:32 10° SE visible
16 Dec - 07:13:05 10° SW 07:14:43 12° SSW 07:16:28 10° S visible
